Regional Weather Roundup
Issued by NWS

Home | Current Version | Previous Version | Text Only | Print | Product List | Glossary Off
Versions: 1 2 3 4 5 6 7 8 9 10 11 12 13 14 15 16 17 18 19 20 21 22 23 24 25 26 27 28 29 30 31 32 33 34 35 36 37 38 39 40 41 42 43 44 45 46 47 48 49 50

000
ASUS45 KABQ 060701
RWRNM
NEW MEXICO REGIONAL WEATHER ROUNDUP
NATIONAL WEATHER SERVICE ALBUQUERQUE NM
100 AM MDT FRI MAY 06 2016

NOTE: "FAIR" MEANS FEW OR NO CLOUDS BELOW 12,000 FEET AGL WITH NO
       SIGNIFICANT WEATHER OR OBSTRUCTIONS TO VISION.

      THIS PRODUCT IS RELEASED AS TWO VERSIONS.  ONE VERSION NEAR
      THE TOP OF THE HOUR CONTAINING PRELIMINARY DATA FROM ALBUQUERQUE
      AND OTHER STATIONS.  A FINAL VERSION WITH ADDITIONAL DATA IS
      ISSUED ABOUT 10 MINUTES AFTER THE HOUR.

NMZ501-503-504-510>518-060800-
NORTHWEST PLATEAU/NORTHCENTRAL MOUNTAINS

CITY           SKY/WX    TMP DP  RH WIND       PRES   REMARKS
FARMINGTON     FAIR      65  29  25 E12       29.92F
SANTA FE       FAIR      59  20  22 SE16      30.10F
TAOS           FAIR      57  23  26 W6        30.15F
ANGEL FIRE     FAIR      43  25  48 SW7       30.24F

$$
NMZ402-403-502-505>509-060800-
WESTCENTRAL MOUNTAINS/SOUTHWEST MOUNTAINS

CITY           SKY/WX    TMP DP  RH WIND       PRES   REMARKS
GALLUP         LGT RAIN  62  33  33 S10       29.99S
GRANTS         MOCLDY    62  30  30 S13       30.06S
SILVER CITY      N/A     66  14  13 SW6       30.03S

$$
NMZ407-409-411-412-060800-
SOUTHERN DESERTS

CITY           SKY/WX    TMP DP  RH WIND       PRES   REMARKS
LORDSBURG      FAIR      68   9  10 S7        29.94S
DEMING         FAIR      62  22  21 NE3       29.95R
HOLLOMAN AFB   FAIR      75  25  15 S16       29.93S
ALAMOGORDO     FAIR      77  27  15 SE16G26   29.95F
T OR C         FAIR      69  39  33 S9        29.97F

$$
NMZ519>523-060800-
CENTRAL VALLEYS/CENTRAL HIGHLANDS

CITY           SKY/WX    TMP DP  RH WIND       PRES   REMARKS
ALBUQUERQUE    FAIR      67  23  19 SE13      30.00S
DOUBLE EAGLE   FAIR      60  26  26 SE10      30.05S
MORIARTY ARPT  FAIR      54  20  26 S10       30.12F
CLINES CORNERS FAIR      55  20  25 S24G33    30.15F
BELEN          FAIR      66  20  17 SE14      30.01S
SOCORRO        NOT AVBL

$$
NMZ524>526-539-540-060800-
SOUTHCENTRAL MOUNTAINS

CITY           SKY/WX    TMP DP  RH WIND       PRES   REMARKS
RUIDOSO        NOT AVBL

$$
NMZ527>531-060800-
NORTHEAST HIGHLANDS/NORTHEAST PLAINS

CITY           SKY/WX    TMP DP  RH WIND       PRES   REMARKS
LAS VEGAS      FAIR      50  24  36 S12       30.17F
RATON          FAIR      46  29  51 N8        30.14F
CLAYTON        FAIR      53  30  41 S8        30.08S

$$
NMZ532>537-060800-
EASTCENTRAL PLAINS

CITY           SKY/WX    TMP DP  RH WIND       PRES   REMARKS
TUCUMCARI      FAIR      58  29  33 S9        30.04S
CANNON AFB     NOT AVBL
CLOVIS AIRPORT FAIR      57  28  33 S10       30.11R

$$
NMZ028-029-538-060800-
SOUTHEAST PLAINS

CITY           SKY/WX    TMP DP  RH WIND       PRES   REMARKS
ROSWELL        FAIR      58  25  28 SW3       30.03F
ARTESIA        FAIR      63  27  25 S10       30.03F
CARLSBAD       FAIR      65  24  21 S9        30.02F
HOBBS          FAIR      57  32  38 SE7       30.09F


$$




USA.gov is the U.S. government's official web portal to all federal, state and local government web resources and services.